Flag for U.S.A. Weather past 2 weeks in Kalamazoo, Michigan, U.S.A.

Now
49 °F

Clear.


Feels Like: 46 °F
Forecast: 38 / 72 °F
Wind: 6 mph from Southeast

Location: Kalamazoo / Battle Creek International Airport


UV Index: 5 (Moderate)

Visibility: 10 mi


Pressure: 30.35 "Hg

Humidity: 43%

Dew point: 27 °F

Location of KalamazooLocation

Historic Weather in Kalamazoo

°F

Kalamazoo temperature yesterday

Maximum temperature yesterday: 62 °F (at 2:53 PM)
Minimum temperature yesterday: 38 °F (at 11:53 PM)
Average temperature yesterday: 51 °F

Past Weeks' High & Low Weather Summary

 TemperatureHumidityPressure
High73 °F (Apr 12, 5:53 PM)100% (Apr 5, 5:53 AM)30.45 "Hg (Apr 5, 5:53 AM)
Low23 °F (Apr 16, 3:53 AM)16% (Apr 11, 4:53 PM)29.38 "Hg (Apr 14, 5:53 AM)
Average47 °F57%30.00 "Hg
* Reported Apr 4 9:53 PM — Apr 19 9:53 PM, Kalamazoo, Weather by CustomWeather, © 2014

Note: Actual official high and low records may vary slightly from our data, if they occured in-between our weather recording intervals... More about our weather records

Advertising

Historic Weather Conditions — Data for Previous 24 hours

 ConditionsComfort  
Time TempWeatherWind HumidityBarometerVisibility
9:53 PM
Apr 19
53 °FClear.9 mph39%30.34 "Hg10 mi
8:53 PM55 °FSunny.9 mph39%30.31 "Hg10 mi
7:53 PM58 °FSunny.9 mph35%30.30 "Hg10 mi
6:53 PM61 °FSunny.7 mph29%30.31 "Hg10 mi
5:53 PM62 °FSunny.8 mph27%30.31 "Hg10 mi
4:53 PM63 °FSunny.7 mph27%30.32 "Hg10 mi
3:53 PM62 °FSunny.9 mph25%30.34 "Hg10 mi
2:53 PM60 °FSunny.7 mph30%30.37 "Hg10 mi
1:53 PM57 °FSunny.8 mph36%30.39 "Hg10 mi
12:53 PM55 °FSunny.7 mph42%30.42 "Hg10 mi
11:53 AM51 °FSunny.9 mph46%30.43 "Hg10 mi
10:53 AM47 °FSunny.7 mph54%30.45 "Hg10 mi
9:53 AM43 °FSunny.9 mph58%30.45 "Hg10 mi
8:53 AM39 °FSunny.8 mph65%30.45 "Hg10 mi
7:53 AM36 °FClear.6 mph73%30.44 "Hg10 mi
6:53 AM36 °FClear.8 mph75%30.41 "Hg10 mi
5:53 AM36 °FClear.6 mph79%30.39 "Hg10 mi
4:53 AM37 °FClear.6 mph76%30.38 "Hg10 mi
3:53 AM38 °FClear.5 mph70%30.37 "Hg10 mi
2:53 AM40 °FClear.7 mph65%30.37 "Hg10 mi
1:53 AM42 °FClear.8 mph62%30.37 "Hg10 mi
12:53 AM38 °FClear.5 mph68%30.36 "Hg10 mi
11:53 PM
Apr 18
38 °FClear.6 mph65%30.35 "Hg10 mi
Weather by CustomWeather, © 2014

See weather overview